カタログに戻る

CZ-6A DEB

運用中PO
NORAD 61799·DEBRIS·🇨🇳 China

打ち上げ Aug 6, 2024 から Taiyuan Satellite Launch Center

Loading…

次のパス (今後24時間)

TLE

最新Source: Space-Track

元期: Sep 13, 2026, 20:05 UTC

1 61799U 24140ABP 26256.83701032  .00000012  00000-0 -37934-5 0  9993
2 61799  88.2186 204.9703 0303461  47.4833 315.1537 13.75314078102623

AllMySatでCZ-6A DEBをリアルタイム追跡

Download on the App Store